This is the latest recevied weather packets stored in our database for station/object WX7EM. If no packets are shown the sender has not sent any weather packets the latest 1 day(s).
| Time | Temp. | Humidity | Pressure | Rain* | Wind** | Luminosity | Snow |
|---|---|---|---|---|---|---|---|
| 1778096189 | 17.22° C | 78% | 1020.5 hPa | 0 mm | - | 899 W/m² | - |
| 1778094975 | 17.78° C | 77% | 1020.5 hPa | 0 mm | - | 908 W/m² | - |
| 1778094671 | 17.22° C | 79% | 1020.7 hPa | 0 mm | - | 976 W/m² | - |
| 1778094369 | 16.11° C | 82% | 1020.7 hPa | 0 mm | - | 966 W/m² | - |
| 1778093459 | 15.56° C | 84% | 1020.5 hPa | 0 mm | - | 363 W/m² | - |
| 1778092854 | 15.56° C | 83% | 1020.5 hPa | 0 mm | - | 384 W/m² | - |
| 1778090125 | 14.44° C | 86% | 1020.7 hPa | 0 mm | - | 259 W/m² | - |
| 1778089520 | 14.44° C | 87% | 1020.4 hPa | 0 mm | - | 260 W/m² | - |
| 1778086794 | 12.78° C | 90% | 1020.5 hPa | 0 mm | - | 155 W/m² | - |
| 1778084066 | 12.22° C | 92% | 1020.5 hPa | 0 mm | - | 236 W/m² | - |
| 1778083460 | 12.22° C | 92% | 1020.6 hPa | 0 mm | - | 154 W/m² | - |
| 1778081731 | 11.67° C | 91% | 1020.7 hPa | 0 mm | - | 59 W/m² | - |
| 1778080218 | 11.67° C | 93% | 1020.3 hPa | 0 mm | - | 62 W/m² | - |
| 1778079914 | 11.67° C | 93% | 1020 hPa | 0 mm | - | 69 W/m² | - |
| 1778078702 | 11.67° C | 97% | 1020 hPa | 0 mm | - | 81 W/m² | - |
| 1778077190 | 11.11° C | 97% | 1019.8 hPa | 0 mm | - | 47 W/m² | - |
| 1778076888 | 11.11° C | 98% | 1019.9 hPa | 0 mm | - | 39 W/m² | - |
| 1778076283 | 10.56° C | 98% | 1020 hPa | 0 mm | - | 38 W/m² | - |
| 1778075677 | 10.56° C | 98% | 1019.8 hPa | 0 mm | - | 31 W/m² | - |
| 1778075373 | 10.56° C | 98% | 1019.7 hPa | 0 mm | - | 23 W/m² | - |
| 1778074160 | 11.11° C | 99% | 1019.6 hPa | 0 mm | - | 13 W/m² | - |
| 1778073857 | 11.11° C | 99% | 1019.6 hPa | 0 mm | - | 9 W/m² | - |
| 1778073251 | 10.56° C | 99% | 1019.5 hPa | 0 mm | - | 5 W/m² | - |
| 1778072644 | 10.56° C | 99% | 1019.6 hPa | 0 mm | - | 2 W/m² | - |
| 1778071435 | 10° C | 99% | 1019.4 hPa | 0 mm | - | 0 W/m² | - |
* Rain latest hour (hover to see other rain measurements)
** Current wind speed in m/s (hover to see current wind gust speed)